Weather in Ivanovo

Russia / Pskov Oblast     56°03′12″N   29°59′36″E
temp.,
°C
wind,
m/s
gust,
m/s
humid.,
%
clouds,
%
prec.,
mm/h
press.,
hPa
HPBL,
m
18 may, wed
wed1800:00+6n5108770 0.0 1017898
03:00+4nnw41187100 0.0 1018703
06:00+5nnw41085100 0.0 1020630
09:00+6nnw4977100 0.0 1021680
12:00+12nnw574841 0.0 10211598
15:00+14nnw574141 0.0 10201933
18:00+14nnw384725 0.0 10191820
21:00+9wnw22735 0.0 102021
19 may, thu
thu1900:00+7wnw3127383 0.0 1021360
03:00+5wnw41368100 0.0 1021415
06:00+5w41267100 0.0 1020405
09:00+10wnw4952100 0.0 1020546
12:00+15wnw464097 0.0 10191113
15:00+17wnw4635100 0.0 10181813
18:00+16nw464894 0.0 10182042
21:00+10nnw1291100 0.6 101959
20 may, fri
fri2000:00+8n239521 0.1 102063
03:00+6e119647 0.1 102012
06:00+7e2495100 0.0 1020110
09:00+10ese3683100 0.0 1019402
12:00+13ese4656100 0.0 10171013
15:00+9e5973100 0.5 1015691
18:00+7ene51193100 4.4 1015614
21:00+6ne31095100 6.3 1015523
21 may, sat
sat2100:00+5nne3995100 0.0 1016267
03:00+3nne3109488 0.0 1016210
06:00+2nne26933 0.0 1018142
09:00+9ne35640 0.0 1018484
12:00+13ne34415 0.0 10161691
15:00+15ene233668 0.0 10151964
18:00+14ene2340100 0.0 10131805
21:00+8ne2467100 0.0 101361
22 may, sun
sun2200:00+5ene2378100 0.0 101358
03:00+4e2284100 0.0 101324
06:00+5e23815 0.0 101369
09:00+11ese34535 0.0 1012586
12:00+15e233810 0.0 10122135
15:00+16ene2236100 0.0 10122186
18:00+15ne3344100 0.0 10121495
21:00+10nne2467100 0.0 101380